Regional Weather Roundup
Issued by NWS

Home | Current Version | Previous Version | Graphics & Text | Print | Product List | Glossary On
Versions: 1 2 3 4 5 6 7 8 9 10 11 12 13 14 15 16 17 18 19 20 21 22 23 24 25 26 27 28 29 30 31 32 33 34 35 36 37 38 39 40 41 42 43 44 45 46 47 48 49 50
000
ASUS43 KLOT 051310
RWRIL

ILLINOIS REGIONAL WEATHER ROUNDUP
NATIONAL WEATHER SERVICE CHICAGO/ROMEOVILLE IL
700 AM CST THU MAR 05 2015

NOTE: "FAIR" INDICATES FEW OR NO CLOUDS BELOW 12,000 FEET WITH NO
SIGNIFICANT WEATHER AND/OR OBSTRUCTIONS TO VISIBILITY.

* THESE STATIONS ARE NOT UNDER NWS QUALITY CONTROL. THEY ALSO MAY NOT
  REPORT WEATHER SUCH AS PRECIPITATION OR FOG.

ILZ001-002-007-009-015-016-024-051400-
NORTHWEST ILLINOIS

CITY           SKY/WX    TMP DP  RH WIND       PRES   REMARKS
MOLINE         CLEAR      1  -8  66 NW9       30.50R WCI -14
STERLING*      CLEAR     -2  -8  78 NW5       30.46R WCI -12
SAVANNA*       CLEAR     -4 -10  76 CALM      30.49R
$$

ILZ003-004-008-010-011-017-018-051400-
NORTH CENTRAL ILLINOIS

CITY           SKY/WX    TMP DP  RH WIND       PRES   REMARKS
ROCKFORD       PTCLDY    -4  -9  79 NW5       30.46R WCI -15
FREEPORT*      PTCLDY    -4  -9  79 CALM      30.47R
ROCHELLE*      PTCLDY    -8 -12  82 CALM      30.46R
DE KALB*       CLEAR     -3  -9  77 NW6       30.42R WCI -15
PERU*          PTCLDY     1  -4  77 NW10      30.47R WCI -15
$$

ILZ005-006-012>014-019>023-051400-
NORTHEAST ILLINOIS

CITY           SKY/WX    TMP DP  RH WIND       PRES   REMARKS
CHICAGO-OHARE  MOCLDY     4  -8  57 NW10      30.41R WCI -11
CHICAGO-MIDWAY MOCLDY     9  -6  50 NW8       30.42R WCI  -3
AURORA         PTCLDY    -4 -11  72 NW3       30.43R
LANSING*       MOCLDY    10  -3  54 NW9       30.39S WCI  -2
JOLIET*        MOCLDY     5  -4  67 NW3       30.44R
WAUKEGAN       PTCLDY     0 -11  59 W6        30.41R WCI -12
DUPAGE AIRPORT PTCLDY     2  -7  66 NW8       30.41R WCI -12
KANKAKEE*      MOCLDY     8   1  75 NW6       30.42R WCI  -2
WHEELING       PTCLDY     4  -9  55 NW9       30.44R WCI -10
MORRIS*        MOCLDY     2  -4  75 NW3       30.43R
ROMEOVILLE*    MOCLDY     5  -6  62 N8        30.42R WCI  -9
NORTHERLY ISL    N/A     12  -4  48 W7          N/A  WCI   2
$$

LMZ740>746-051400-
SOUTHERN LAKE MICHIGAN

STATION/POSITION SKY/WX   TEMP    WIND        PRES    VSBY  WAVE
                          AIR SEA DIR/SP/G                  HT/PER
                          (F)     (DEG/KT/KT) (MB)    (MI)  (FT/S)
WAUKEGAN HARBOR             4                   N/A
HARRISON CRIB              11     300/ 13/ 17   N/A
BURNHAM HARBOR             12     290/  7/ 11   N/A
CALUMET HARBOR             10     280/  8/ 12 1028.1R
MICHIGAN CITY              15     290/  9/ 11   N/A
$$

ILZ025>027-034>036-040-047-049-050-058-095>099-051400-
WEST-CENTRAL ILLINOIS

CITY           SKY/WX    TMP DP  RH WIND       PRES   REMARKS
QUINCY         PTCLDY     7   0  73 N10       30.49R WCI  -8
GALESBURG*     CLEAR     -1  -7  78 W9        30.48R WCI -17
MACOMB*        CLEAR      4  -3  71 NW12      30.51R WCI -12
JACKSONVILLE*  MOCLDY     8   1  74 NW6       30.48R WCI  -3
PITTSFIELD*    PTCLDY    10   3  72 N8        30.50R WCI  -1
$$

ILZ028>032-037-038-041>044-048-051>054-059>061-051400-
CENTRAL ILLINOIS

CITY           SKY/WX    TMP DP  RH WIND       PRES   REMARKS
PONTIAC        MOCLDY     5  -1  77 NW7       30.44R WCI  -7
BLOOMINGTON    MOCLDY     7   0  73 NW10      30.43R WCI  -7
DECATUR        MOCLDY    10   1  67 N9        30.43R WCI  -3
PEORIA         PTCLDY     7  -3  64 NW5       30.48R WCI  -2
LACON*         PTCLDY     3  -5  70 NW7       30.48R WCI -10
LINCOLN*       MOCLDY    10   2  68 CALM      30.50R
SPRINGFIELD    PTCLDY     9   0  67 N7        30.47R WCI  -2
TAYLORVILLE    MOCLDY    10   1  67 NW8       30.45S WCI  -1
$$

ILZ033-039-045-046-055>057-062-063-051400-
EAST-CENTRAL ILLINOIS

CITY           SKY/WX    TMP DP  RH WIND       PRES   REMARKS
CHAMPAIGN      MOCLDY     7  -1  70 NW10      30.41S WCI  -8
DANVILLE*      PTCLDY     7   0  73 NW10      30.37R WCI  -8
RANTOUL*       PTCLDY     9   1  71 NW8       30.41R WCI  -3
MATTOON        CLOUDY     9   2  73 NW12      30.41R WCI  -6
PARIS*         MOCLDY     9   2  73 N6        30.41R WCI   0
$$

ILZ079-100>102-051400-
SOUTHWEST ILLINOIS

CITY           SKY/WX    TMP DP  RH WIND       PRES   REMARKS
BELLEVILLE     CLOUDY    15   3  57 N10       30.47R WCI   3
CAHOKIA*       CLOUDY    17   4  56 N12       30.49R WCI   4
SPARTA*        CLOUDY    17   5  60 N7        30.46S WCI   7
$$

ILZ064>066-069>071-074>076-080>082-084>086-088>090-092>094-051400-
SOUTH-CENTRAL ILLINOIS

CITY           SKY/WX    TMP DP  RH WIND       PRES   REMARKS
CARBONDALE     CLOUDY    18   6  59 N7        30.45R WCI   9
CAIRO*         CLOUDY    23  12  63 N8        30.41F WCI  13
EFFINGHAM*     CLOUDY    13   0  56 NW6       30.46R WCI   3
MARION         CLOUDY    19   7  58 N12       30.44S WCI   7
MT. VERNON     CLOUDY    18   1  49 N5        30.44S WCI  11
CENTRALIA*     CLOUDY    16   4  60 N12       30.45R WCI   3
SALEM*         CLOUDY    17   4  56 N9        30.44S WCI   5
METROPOLIS*    CLOUDY    20  10  62 N7        30.41S WCI  12
$$

ILZ067-068-072-073-078-083-087-091-051400-
SOUTHEAST ILLINOIS

CITY           SKY/WX    TMP DP  RH WIND       PRES   REMARKS
LAWRENCEVILLE  CLOUDY    17   6  62 NW14      30.43R WCI   3
FLORA*         CLOUDY    15   4  61 N10       30.45R WCI   2
FAIRFIELD*     CLOUDY    16   6  63 N9        30.43R WCI   5
HARRISBURG*    CLOUDY    19   7  58 N8        30.45R WCI   9
ROBINSON*      MOCLDY    15   4  62 N10       30.44R WCI   2
CARMI*         CLOUDY    20  11  69 N8        30.44R WCI  10
$$

ABBREVIATIONS USED IN REMARKS
   TC - TEMPERATURE IN CELSIUS
  WCI - WIND CHILL INDEX
   HX - HEAT INDEX
  VSB - VISIBILITY
$$



USA.gov is the U.S. government's official web portal to all federal, state and local government web resources and services.